Location: Kopernik Observatory
(42.0014°N, 76.0372°W)
Time: 11:22:23
(UTC-05:00)

Daily predictions for brighter satellites

Satellite Brightness Start Highest point End
(mag) Time Altitude Azimuth Time Altitude Azimuth Time Altitude Azimuth
ATLAS 2AS CENTAUR R/B 3.3 17:23:26 10° NW 17:31:20 73° WSW 17:38:35 10° SSE
USA 116 4.4 17:29:39 10° NNE 17:33:54 51° E 17:38:38 10° S
Cosmos 1943 3.6 17:30:43 10° SSW 17:36:18 69° WNW 17:41:56 10° NNE
Geosat 4.0 17:31:46 10° NNE 17:36:49 77° ESE 17:41:50 10° SSW
Cosmos 968 Rocket 3.4 17:32:09 10° NNW 17:37:18 73° ENE 17:42:24 10° SSE
Cosmos 44 Rocket 4.1 17:34:02 10° S 17:38:04 30° ESE 17:42:10 10° NE
Meteor 1-21 Rocket 4.4 17:35:27 10° S 17:41:21 88° E 17:47:19 10° N
Cosmos 1455 4.0 17:40:41 10° NE 17:42:14 12° ENE 17:43:46 10° E
BREEZE M DEB (TANK) 4.1 17:43:51 10° WSW 17:48:16 85° NNW 18:06:06 11° ENE
IRS-1A Rocket 4.2 17:46:46 10° SSE 17:52:17 73° ENE 17:57:54 10° N
Cosmos 2366 rocket 4.1 17:46:45 10° N 17:52:53 56° E 17:58:55 10° SSE
Cosmos 2098 Rocket 4.5 17:49:18 10° NNE 17:54:06 33° ENE 17:59:49 10° SE
NOSS 3-4 (A) 3.9 17:47:14 10° NNW 17:54:07 56° NE 18:01:29 10° SE
NOSS 3-4 (C) 4.0 17:47:20 10° NNW 17:54:13 55° NE 18:01:35 10° SE
SeaSat 1 3.9 17:50:11 10° S 17:54:50 42° WSW 17:59:32 10° NW
Cosmos 1328 4.0 17:51:56 10° SSE 17:55:48 49° E 17:59:42 10° NNE
Cosmos 1400 Rocket 3.3 17:54:26 10° SSW 17:58:27 64° WNW 18:02:33 10° N
Tiangong 1 0.4 17:57:24 10° W 17:59:53 81° SSW 18:01:44 16° ESE
ALOS 2.4 17:56:20 10° SSE 18:00:51 53° ENE 18:05:25 10° N
EO 1 Del DPAF 4.0 17:57:49 10° NNE 18:01:18 32° E 18:04:46 10° SSE
Cosmos 1766 Rocket 3.6 17:57:24 10° S 18:01:37 54° E 18:05:51 10° NNE
Cosmos 1626 2.6 17:58:51 10° SSE 18:02:18 39° E 18:05:48 10° NNE
Landsat 4 3.8 18:02:53 10° NNE 18:06:33 52° E 18:10:11 10° S
MOS 1 4.2 18:03:46 10° SSE 18:09:21 68° ENE 18:14:58 10° N
Okean 3 Rocket 4.1 18:05:01 10° SSW 18:09:31 65° W 18:14:01 10° N
Meteor 2-2 Rocket 4.2 18:03:48 10° N 18:09:32 66° ENE 18:15:08 10° SSE
MONITOR-E 4.0 18:07:17 10° SSE 18:10:17 62° ENE 18:13:18 10° N
NOAA 12 4.1 18:06:47 10° SSE 18:11:55 61° ENE 18:17:06 10° N
SKYMED 2 3.5 18:08:34 10° NNE 18:12:56 80° ESE 18:17:16 10° S
Cosmos 1656 Rocket 3.5 18:07:45 10° NNW 18:13:14 75° ENE 18:18:45 10° SSE
Cosmos 2369 Rocket 4.4 18:09:56 10° NW 18:14:47 30° WSW 18:19:39 10° SSW
Cosmos 1703 3.7 18:14:40 10° SSE 18:18:23 40° E 18:22:01 11° NNE
YAOGAN 1 3.2 18:15:56 10° S 18:20:12 60° W 18:24:29 10° NNW
Cosmos 1300 3.8 18:16:40 10° NNW 18:20:22 48° W 18:24:02 10° SSW
Cosmos 1151 Rocket 3.7 18:17:30 10° NNE 18:21:27 31° ENE 18:25:21 10° SE
Cosmos 1943 Rocket 3.7 18:17:08 10° NW 18:22:17 39° WSW 18:27:22 10° S
ERS-2 2.3 18:18:51 10° SE 18:22:24 47° ENE 18:25:57 10° N
SL-24 R/B - RUBIN 2 3.6 18:22:33 10° NW 18:27:05 78° WSW 18:31:22 10° SSE
Cosmos 2058 3.1 18:29:33 10° SSE 18:33:34 48° E 18:36:33 17° NNE
Cosmos 909 Rocket 4.2 18:30:22 10° NNW 18:37:07 52° NE 18:42:13 15° SE
Thor Agena Rocket 4.2 18:35:28 26° ENE 18:37:13 32° E 18:41:50 10° SSE
BREEZE-M R/B 4.0 18:37:00 10° WNW 18:38:36 20° NNW 18:38:36 20° NNW
FENGYUN 3A 4.1 18:37:44 10° S 18:43:02 65° WSW 18:48:24 10° NNW
Cosmos 371 Rocket 3.4 18:40:16 10° S 18:44:54 50° ESE 18:46:37 34° NE
Cosmos 44 3.7 18:40:48 10° SW 18:45:00 51° NW 18:48:03 19° NNE
CZ-4 R/B 4.4 18:47:32 10° SW 18:50:33 19° W 18:53:37 10° NW
Cosmos 2151 2.8 18:48:23 10° S 18:52:38 77° E 18:55:25 21° NNE
Cosmos 1515 Rocket 3.4 18:48:23 10° N 18:52:45 77° E 18:57:04 10° SSE
Cosmos 2239 Rocket 4.5 18:47:52 10° N 18:53:54 56° E 18:59:55 10° SSE
SPOT 3 Rocket 4.2 18:52:43 10° S 18:57:45 57° W 19:02:51 10° NNW
ERBS 4.4 18:55:42 10° NNW 18:56:54 17° N 18:56:54 17° N
COSMO-SKYMED 1 4.4 18:57:01 10° N 19:00:50 31° WNW 19:04:39 10° SW
Cosmos 1346 Rocket 4.0 19:00:42 10° NNW 19:04:23 41° W 19:08:03 10° SSW
Cosmos 1500 Rocket 3.5 19:01:09 10° S 19:05:37 89° ESE 19:07:49 30° N
PKM 3.6 19:03:45 10° NW 19:06:33 85° NE 19:06:37 84° ENE
H-2A R/B 3.3 19:04:45 10° S 19:08:30 58° W 19:12:19 10° NNW
COSMOS 2406 3.3 19:04:20 10° SSW 19:10:03 79° WNW 19:13:27 26° NNE
USA 81 4.0 19:04:53 10° S 19:10:09 84° W 19:15:28 10° N
Meteor 2-15 4.3 19:08:00 10° S 19:14:07 85° E 19:20:15 10° N
Cosmos 2228 Rocket 3.8 19:11:33 10° NNW 19:16:02 55° W 19:20:31 10° S
Cosmos 1455 3.2 19:14:30 10° NNW 19:18:12 46° W 19:21:51 10° SSW
Cosmos 2208 Rocket 3.9 19:13:57 10° SSW 19:19:12 75° ESE 19:19:41 69° ENE
Cosmos 1743 Rocket 4.5 19:16:08 10° SSW 19:20:21 47° WNW 19:23:39 16° N
Cosmos 1898 Rocket 4.3 19:24:50 10° NNW 19:28:12 38° N 19:28:12 38° N
GEOS 3 Rocket 3.6 19:35:22 78° S 19:35:42 84° SW 19:41:08 10° NW
Cosmos 1821 Rocket 4.4 19:38:10 10° NNW 19:44:12 59° W 19:50:17 10° S
Lacrosse 5 3.5 19:40:31 10° SSW 19:42:42 25° SSW 19:42:42 25° SSW
Envisat 4.5 19:51:21 28° NNW 19:51:21 28° NNW 19:53:45 10° NNW
CZ-4C R/B 4.0 20:08:03 10° SSW 20:09:27 19° SSW 20:09:27 19° SSW
